Nashua, NH

3:40 PM EDT on August 20, 2019 (GMT -0400)
Boire

Weather History for KASH - May, 2019

Change the Weather History Date:

Tuesday, May 7, 2019

  Actual Average Record
Temperature  
Mean Temperature 58 °F -  
Max Temperature 75 °F 63 °F 91 °F (2000)
Min Temperature 42 °F 39 °F 27 °F (1968)
Degree Days  
Heating Degree Days 6    
Growing Degree Days 8 (Base 50)    
Moisture  
Dew Point 50 °F    
Average Humidity 80    
Maximum Humidity 100    
Minimum Humidity 41    
Precipitation  
Precipitation 0.09 in - - ()
Sea Level Pressure  
Sea Level Pressure 30.14 in    
Wind  
Wind Speed 3 mph (West)    
Max Wind Speed 13 mph    
Max Gust Speed 17 mph    
Visibility 10 miles    
Events Rain    
Averages and records for this station are not official NWS values.
T = Trace of Precipitation, MM = Missing Value Source: NWS Daily Summary

Daily Weather History Graph

Daily Weather History Graph

Search for Another Location

Airport or City:

Astronomy

May. 07, 2019 Rise Set
Actual Time 5:32 AM EDT 7:53 PM EDT
Civil Twilight 5:01 AM EDT 8:24 PM EDT
Nautical Twilight 4:22 AM EDT 9:03 PM EDT
Astronomical Twilight 3:38 AM EDT 9:47 PM EDT
Moon 7:35 AM EDT (5/7) 10:52 PM EDT (5/7)
Length of Visible Light 15h 23m
Length of Day
14h 20m
Waxing Crescent, 8% of the Moon is Illuminated
May 7
Waxing Crescent
May 11
First Quarter
May 18
Full
May 26
Last Quarter
Jun 3
New

Hourly Weather History & Observations

Time (EDT) Temp. Windchill Dew Point Humidity Pressure Visibility Wind Dir Wind Speed Gust Speed Precip Events Conditions
12:56 AM 45.0 °F - 39.9 °F 82% 30.17 in 10.0 mi Calm Calm - N/A   Clear
1:56 AM 43.0 °F - 39.9 °F 89% 30.17 in 10.0 mi Calm Calm - N/A   Clear
2:56 AM 42.1 °F - 39.9 °F 92% 30.17 in 10.0 mi Calm Calm - N/A   Partly Cloudy
3:56 AM 42.1 °F 40.2 °F 41.0 °F 96% 30.17 in 10.0 mi ESE 3.5 mph - N/A   Clear
4:56 AM 44.1 °F 42.5 °F 41.0 °F 89% 30.16 in 10.0 mi SE 3.5 mph - N/A   Scattered Clouds
5:56 AM 43.0 °F 40.3 °F 41.0 °F 93% 30.17 in 10.0 mi ESE 4.6 mph - N/A   Clear
6:56 AM 46.9 °F - 43.0 °F 86% 30.17 in 10.0 mi SE 3.5 mph - N/A   Partly Cloudy
7:56 AM 54.0 °F - 43.0 °F 66% 30.16 in 10.0 mi Calm Calm - N/A   Mostly Cloudy
8:56 AM 57.0 °F - 44.1 °F 62% 30.16 in 10.0 mi Calm Calm - N/A   Mostly Cloudy
9:56 AM 59.0 °F - 46.0 °F 62% 30.14 in 10.0 mi Variable 4.6 mph - N/A   Mostly Cloudy
10:56 AM 63.0 °F - 48.9 °F 60% 30.13 in 10.0 mi Calm Calm - N/A   Mostly Cloudy
11:56 AM 66.9 °F - 50.0 °F 54% 30.12 in 10.0 mi Variable 6.9 mph - N/A   Mostly Cloudy
12:56 PM 72.0 °F - 50.0 °F 46% 30.09 in 10.0 mi SW 5.8 mph 16.1 mph N/A   Mostly Cloudy
1:56 PM 73.0 °F - 48.9 °F 42% 30.08 in 10.0 mi West 10.4 mph 17.3 mph N/A   Mostly Cloudy
2:56 PM 75.0 °F - 50.0 °F 41% 30.07 in 10.0 mi West 10.4 mph 17.3 mph N/A   Mostly Cloudy
3:56 PM 73.0 °F - 51.1 °F 46% 30.06 in 10.0 mi WNW 9.2 mph - N/A   Mostly Cloudy
4:56 PM 63.0 °F - 57.0 °F 81% 30.10 in 10.0 mi NNW 12.7 mph - 0.00 in Rain Light Rain
5:56 PM 61.0 °F - 57.0 °F 87% 30.13 in 10.0 mi WNW 10.4 mph - 0.01 in Rain Light Rain
6:56 PM 57.9 °F - 57.9 °F 100% 30.14 in 10.0 mi WSW 3.5 mph - 0.03 in Rain Light Rain
7:56 PM 57.0 °F - 57.0 °F 100% 30.15 in 10.0 mi Calm Calm - 0.03 in Rain Light Rain
8:47 PM 57.2 °F - 57.2 °F 100% 30.12 in 10.0 mi Variable 3.5 mph - 0.02 in Rain Light Rain
8:56 PM 57.0 °F - 57.0 °F 100% 30.16 in 10.0 mi SW 3.5 mph - 0.02 in Rain Light Rain
9:34 PM 57.2 °F - 57.2 °F 100% 30.14 in 10.0 mi Calm Calm - 0.00 in   Overcast
9:56 PM 57.0 °F - 57.0 °F 100% 30.17 in 10.0 mi NW 3.5 mph - 0.00 in   Overcast
10:56 PM 57.0 °F - 57.0 °F 100% 30.17 in 10.0 mi WNW 4.6 mph - N/A   Overcast
11:56 PM 55.9 °F - 55.0 °F 97% 30.18 in 10.0 mi WNW 3.5 mph - N/A   Overcast